�N����,����,�~����,�C��,���x,�C��,����,���ϕ���,�ő�u�ԕ���,�ő厞����,���˗�,�I�_���x,�n�����x,�ő啗���N��,DTYPE
"18/11/11","00:10",0.0,8.8,95.2,1016.8,302.6,1.7,2.6,311.1,0.00,8.1,14.7,"00:03:20",1
"18/11/11","00:20",0.0,9.0,95.3,1016.6,307.9,2.0,2.9,300.5,0.00,8.3,14.4,"00:13:36",1
"18/11/11","00:30",0.0,9.2,95.4,1016.8,303.4,1.8,2.8,314.4,0.00,8.5,14.5,"00:29:28",1
"18/11/11","00:40",0.0,9.7,94.9,1016.8,325.6,2.5,4.9,343.1,0.00,9.0,14.6,"00:34:56",1
"18/11/11","00:50",0.0,9.8,93.8,1016.8,329.8,1.8,3.3,332.4,0.00,8.9,14.7,"00:43:28",1
"18/11/11","01:00",0.0,9.4,94.0,1016.8,289.2,1.2,2.1,316.2,0.00,8.5,14.5,"00:58:56",1
"18/11/11","01:10",0.0,9.0,94.2,1017.1,302.8,1.5,2.2,324.5,0.00,8.2,14.6,"01:01:04",1
"18/11/11","01:20",0.0,9.0,95.0,1017.1,315.6,2.0,3.1,321.9,0.00,8.3,14.5,"01:18:40",1
"18/11/11","01:30",0.0,8.7,94.1,1017.3,322.6,2.0,2.6,319.4,0.00,7.8,14.4,"01:27:52",1
"18/11/11","01:40",0.0,8.5,95.3,1016.8,313.5,2.0,2.6,318.4,0.00,7.8,14.2,"01:34:56",1
"18/11/11","01:50",0.0,8.6,95.8,1017.3,290.0,1.5,2.4,318.3,0.00,8.0,14.2,"01:40:48",1
"18/11/11","02:00",0.0,8.6,95.4,1017.3,282.1,1.5,1.7,291.7,0.00,7.9,14.3,"01:50:16",1
"18/11/11","02:10",0.0,8.5,95.7,1017.3,303.8,1.5,2.6,309.3,0.00,7.9,14.4,"02:03:36",1
"18/11/11","02:20",0.0,8.1,95.4,1017.5,289.3,1.2,1.8,316.9,0.00,7.4,14.0,"02:10:16",1
"18/11/11","02:30",0.0,8.3,96.4,1017.1,315.1,1.8,2.6,307.6,0.00,7.8,14.0,"02:22:48",1
"18/11/11","02:40",0.0,8.4,96.2,1017.1,321.9,2.0,3.3,328.0,0.00,7.9,14.0,"02:39:36",1
"18/11/11","02:50",0.0,8.4,96.0,1017.1,319.4,1.7,2.2,328.4,0.00,7.8,14.0,"02:42:16",1
"18/11/11","03:00",0.0,8.5,96.2,1017.5,330.6,1.7,2.4,322.1,0.00,8.0,14.1,"02:53:36",1
"18/11/11","03:10",0.0,8.6,95.9,1017.1,326.0,2.0,3.4,339.7,0.00,8.0,13.9,"03:00:56",1
"18/11/11","03:20",0.0,8.6,96.3,1017.3,310.7,1.8,3.1,321.7,0.00,8.1,14.0,"03:19:44",1
"18/11/11","03:30",0.0,8.7,96.1,1017.3,323.8,2.6,4.1,307.6,0.00,8.2,14.1,"03:29:20",1
"18/11/11","03:40",0.0,9.1,95.6,1017.1,324.2,3.0,5.1,334.7,0.00,8.5,14.0,"03:30:02",1
"18/11/11","03:50",0.0,9.4,95.1,1016.8,332.3,3.0,5.8,339.2,0.00,8.7,13.9,"03:49:28",1
"18/11/11","04:00",0.0,9.3,94.1,1017.1,294.6,2.2,5.2,324.2,0.00,8.4,13.9,"03:51:04",1
"18/11/11","04:10",0.0,9.2,94.3,1017.1,299.5,2.1,3.4,312.0,0.00,8.4,13.7,"04:05:04",1
"18/11/11","04:20",0.0,9.6,93.7,1016.8,317.1,3.4,5.2,324.2,0.00,8.7,13.8,"04:16:56",1
"18/11/11","04:30",0.0,9.5,92.8,1016.8,308.3,2.3,4.4,319.3,0.00,8.4,14.0,"04:20:08",1
"18/11/11","04:40",0.0,9.1,92.3,1017.3,290.9,1.2,2.9,312.6,0.00,8.0,13.8,"04:31:36",1
"18/11/11","04:50",0.0,8.8,92.3,1017.5,300.1,2.0,2.9,315.3,0.00,7.7,13.8,"04:46:56",1
"18/11/11","05:00",0.0,8.7,93.1,1017.1,313.5,2.3,3.6,326.2,0.00,7.7,13.8,"04:54:32",1
"18/11/11","05:10",0.0,8.6,93.0,1017.3,312.7,1.7,3.2,326.6,0.00,7.6,13.7,"05:02:40",1
"18/11/11","05:20",0.0,8.4,93.4,1017.3,279.9,1.1,1.7,258.3,0.00,7.4,13.7,"05:13:44",1
"18/11/11","05:30",0.0,8.0,93.4,1017.3,310.7,1.8,2.7,322.5,0.00,7.0,13.5,"05:28:08",1
"18/11/11","05:40",0.0,7.8,93.8,1017.5,318.7,1.6,2.2,329.0,0.00,6.9,13.6,"05:30:48",1
"18/11/11","05:50",0.0,7.5,94.6,1017.5,307.3,1.8,2.6,323.5,0.00,6.7,13.5,"05:46:16",1
"18/11/11","06:00",0.0,7.2,94.7,1017.5,306.0,1.7,2.4,318.5,0.00,6.4,13.5,"05:50:08",1
"18/11/11","06:10",0.0,7.1,95.1,1017.8,310.0,1.6,2.0,315.9,0.00,6.4,13.4,"06:02:16",1
"18/11/11","06:20",0.0,7.0,95.7,1017.8,291.4,1.6,1.9,292.9,0.00,6.4,13.3,"06:14:00",1
"18/11/11","06:30",0.0,6.9,96.2,1017.5,297.0,0.8,1.3,311.5,0.00,6.4,13.6,"06:25:36",1
"18/11/11","06:40",0.0,6.7,96.5,1017.5,314.4,2.2,2.9,320.6,0.00,6.2,13.3,"06:35:28",1
"18/11/11","06:50",0.0,6.8,97.2,1017.5,309.2,1.8,2.8,319.7,0.00,6.4,13.3,"06:41:12",1
"18/11/11","07:00",0.0,7.1,97.7,1017.5,286.9,1.6,2.1,279.1,0.00,6.8,13.2,"06:59:36",1
"18/11/11","07:10",0.0,7.5,97.0,1018.0,317.2,2.2,3.6,321.4,0.00,7.1,13.4,"07:04:48",1
"18/11/11","07:20",0.0,7.7,97.3,1017.8,305.8,1.7,2.2,312.9,0.00,7.3,13.0,"07:11:44",1
"18/11/11","07:30",0.0,8.1,97.1,1017.8,300.2,1.6,2.1,307.9,0.00,7.7,13.3,"07:21:04",1
"18/11/11","07:40",0.0,8.6,97.0,1017.8,289.1,1.5,2.0,309.3,0.01,8.2,13.3,"07:31:12",1
"18/11/11","07:50",0.0,9.1,96.3,1018.0,285.0,1.5,1.9,312.6,0.02,8.6,13.3,"07:42:16",1
"18/11/11","08:00",0.0,9.4,96.1,1017.5,261.1,1.1,1.9,255.1,0.03,8.9,13.3,"07:57:20",1
"18/11/11","08:10",0.0,10.1,94.5,1018.2,276.2,1.2,2.0,244.5,0.04,9.3,13.5,"08:00:48",1
"18/11/11","08:20",0.0,10.7,93.3,1018.2,299.9,1.1,2.4,322.2,0.05,9.7,13.4,"08:13:28",1
"18/11/11","08:30",0.0,11.1,91.9,1018.2,319.7,0.8,1.8,324.8,0.07,9.9,13.4,"08:25:20",1
"18/11/11","08:40",0.0,11.2,89.5,1018.5,259.9,1.1,2.0,268.1,0.09,9.6,13.6,"08:37:44",1
"18/11/11","08:50",0.0,11.7,88.7,1018.5,254.1,0.6,1.6,245.3,0.12,9.9,13.8,"08:45:12",1
"18/11/11","09:00",0.0,12.1,86.3,1019.0,278.8,0.8,2.0,317.7,0.16,9.9,13.7,"08:51:04",1
"18/11/11","09:10",0.0,12.2,85.3,1018.7,227.6,0.7,1.6,211.9,0.19,9.8,14.0,"09:09:36",1
"18/11/11","09:20",0.0,12.7,84.4,1019.0,221.1,0.3,0.9,248.5,0.22,10.2,14.0,"09:12:40",1
"18/11/11","09:30",0.0,13.2,83.8,1019.2,169.0,0.5,1.1,120.3,0.24,10.6,14.1,"09:22:56",1
"18/11/11","09:40",0.0,13.0,81.5,1019.4,212.2,0.8,2.1,197.3,0.26,10.0,14.2,"09:30:48",1
"18/11/11","09:50",0.0,13.6,80.9,1019.4,245.8,0.8,1.7,235.9,0.28,10.4,14.3,"09:42:48",1
"18/11/11","10:00",0.0,13.6,79.4,1019.2,259.9,1.0,1.6,224.9,0.30,10.1,14.7,"09:59:12",1
"18/11/11","10:10",0.0,14.3,77.6,1019.2,271.1,0.6,1.6,212.7,0.32,10.5,14.8,"10:00:32",1
"18/11/11","10:20",0.0,14.4,76.3,1018.5,234.7,0.7,1.6,230.0,0.34,10.3,15.2,"10:14:40",1
"18/11/11","10:30",0.0,14.7,74.6,1018.5,300.1,0.7,1.6,332.3,0.36,10.3,15.1,"10:26:32",1
"18/11/11","10:40",0.0,15.2,74.3,1018.0,19.4,0.7,1.7,347.1,0.37,10.7,15.3,"10:32:16",1
"18/11/11","10:50",0.0,15.7,72.8,1017.5,196.1,0.8,1.7,257.4,0.38,10.9,15.7,"10:41:20",1
"18/11/11","11:00",0.0,16.4,70.6,1017.3,192.3,1.1,2.6,109.4,0.39,11.1,15.8,"10:59:44",1
"18/11/11","11:10",0.0,16.7,70.2,1017.1,198.4,1.2,2.1,220.6,0.41,11.3,16.1,"11:02:16",1
"18/11/11","11:20",0.0,16.8,69.4,1017.1,207.7,1.2,3.1,204.8,0.41,11.2,16.4,"11:14:56",1
"18/11/11","11:30",0.0,17.4,68.1,1016.8,199.4,1.3,2.2,173.5,0.42,11.5,16.7,"11:28:24",1
"18/11/11","11:40",0.0,17.4,65.5,1016.4,144.8,0.8,2.0,195.9,0.42,10.9,16.8,"11:31:20",1
"18/11/11","11:50",0.0,17.4,65.4,1016.4,114.2,1.1,2.8,114.7,0.43,10.9,16.9,"11:47:28",1
"18/11/11","12:00",0.0,18.0,63.9,1015.9,336.8,1.0,2.5,357.5,0.43,11.1,17.2,"11:54:16",1
"18/11/11","12:10",0.0,18.1,63.1,1015.9,233.9,1.0,2.5,223.8,0.43,11.0,17.3,"12:04:08",1
"18/11/11","12:20",0.0,18.7,61.5,1015.4,227.3,1.0,2.8,89.8,0.43,11.2,17.8,"12:15:36",1
"18/11/11","12:30",0.0,19.1,60.1,1015.2,338.7,0.7,1.9,330.5,0.42,11.2,17.8,"12:29:44",1
"18/11/11","12:40",0.0,19.0,59.8,1014.7,296.9,1.0,2.4,352.3,0.42,11.1,18.0,"12:31:12",1
"18/11/11","12:50",0.0,18.7,59.0,1014.9,187.3,1.5,4.2,224.0,0.42,10.6,18.1,"12:42:16",1
"18/11/11","13:00",0.0,19.3,58.6,1014.5,271.0,1.1,3.1,239.2,0.41,11.0,18.4,"12:57:52",1
"18/11/11","13:10",0.0,19.5,57.8,1014.2,291.9,1.1,2.2,244.0,0.40,11.0,18.4,"13:01:44",1
"18/11/11","13:20",0.0,19.5,57.2,1014.2,276.7,1.0,2.7,340.1,0.40,10.9,18.7,"13:10:24",1
"18/11/11","13:30",0.0,19.2,57.0,1014.2,248.8,1.5,3.1,229.7,0.38,10.5,18.5,"13:27:36",1
"18/11/11","13:40",0.0,19.5,55.9,1014.0,299.4,1.2,3.1,331.2,0.37,10.5,19.0,"13:33:04",1
"18/11/11","13:50",0.0,19.8,56.0,1014.0,315.7,2.0,5.5,341.2,0.36,10.8,19.2,"13:49:52",1
"18/11/11","14:00",0.0,19.5,54.6,1013.5,231.6,1.1,2.5,234.3,0.34,10.2,19.2,"13:56:24",1
"18/11/11","14:10",0.0,20.0,53.1,1013.5,224.8,1.7,4.4,214.0,0.33,10.2,19.2,"14:06:56",1
"18/11/11","14:20",0.0,20.0,50.2,1013.8,313.6,1.8,4.7,345.9,0.31,9.4,19.1,"14:18:56",1
"18/11/11","14:30",0.0,20.0,51.8,1013.3,257.0,1.8,3.6,223.6,0.30,9.8,19.2,"14:28:00",1
"18/11/11","14:40",0.0,20.1,49.9,1013.3,293.9,1.7,3.3,346.2,0.28,9.4,19.3,"14:39:12",1
"18/11/11","14:50",0.0,20.6,47.2,1013.3,311.8,1.1,2.5,338.9,0.25,9.0,19.3,"14:40:40",1
"18/11/11","15:00",0.0,20.0,50.0,1013.0,246.8,1.3,2.9,229.4,0.20,9.3,19.5,"14:58:24",1
"18/11/11","15:10",0.0,19.8,50.3,1013.0,254.9,1.3,2.8,229.5,0.17,9.2,19.2,"15:02:16",1
"18/11/11","15:20",0.0,20.0,52.3,1013.0,269.3,1.2,2.2,352.9,0.18,10.0,19.3,"15:10:02",1
"18/11/11","15:30",0.0,19.8,52.7,1013.3,281.1,1.2,2.1,331.5,0.13,9.9,19.1,"15:20:56",1
"18/11/11","15:40",0.0,19.8,51.1,1013.0,249.1,0.8,2.5,230.5,0.14,9.5,19.2,"15:37:52",1
"18/11/11","15:50",0.0,19.5,53.1,1013.0,248.2,1.1,2.1,236.6,0.09,9.7,19.3,"15:43:52",1
"18/11/11","16:00",0.0,19.4,53.3,1012.8,251.6,1.1,2.0,241.1,0.07,9.7,19.1,"15:54:00",1
"18/11/11","16:10",0.0,19.9,52.1,1012.8,277.5,1.0,1.7,255.9,0.07,9.8,18.9,"16:00:24",1
"18/11/11","16:20",0.0,19.5,54.8,1013.0,281.9,0.8,1.3,323.0,0.03,10.2,18.9,"16:14:40",1
"18/11/11","16:30",0.0,18.6,58.5,1013.0,278.5,0.8,1.3,290.9,0.01,10.4,18.7,"16:23:28",1
"18/11/11","16:40",0.0,17.7,63.6,1013.0,277.4,0.8,1.3,292.9,0.01,10.8,18.7,"16:30:08",1
"18/11/11","16:50",0.0,17.1,67.0,1012.8,270.9,0.8,1.6,263.1,0.01,11.0,18.7,"16:48:24",1
"18/11/11","17:00",0.0,16.5,69.8,1013.3,267.0,0.7,1.2,243.0,0.00,11.0,18.4,"16:56:40",1
"18/11/11","17:10",0.0,16.1,71.9,1013.3,292.7,1.0,2.0,337.4,0.00,11.1,18.4,"17:09:44",1
"18/11/11","17:20",0.0,15.7,73.7,1013.5,323.2,1.6,2.4,332.0,0.00,11.1,18.2,"17:17:52",1
"18/11/11","17:30",0.0,15.2,75.8,1013.8,279.4,1.0,1.4,302.7,0.00,11.0,17.9,"17:20:48",1
"18/11/11","17:40",0.0,14.7,76.9,1013.5,284.1,0.8,1.3,262.8,0.00,10.7,17.9,"17:37:28",1
"18/11/11","17:50",0.0,14.1,78.9,1013.8,288.8,1.0,1.6,308.3,0.00,10.5,17.8,"17:49:12",1
"18/11/11","18:00",0.0,13.8,80.7,1014.0,280.1,0.8,1.1,300.7,0.00,10.6,17.7,"17:50:08",1
"18/11/11","18:10",0.0,13.6,81.9,1014.0,285.3,1.0,1.6,310.8,0.00,10.6,17.6,"18:09:22",1
"18/11/11","18:20",0.0,13.4,82.8,1014.0,278.0,1.2,1.9,305.5,0.00,10.6,17.4,"18:11:44",1
"18/11/11","18:30",0.0,13.4,83.7,1014.5,285.6,1.5,2.5,301.2,0.00,10.7,17.4,"18:28:42",1
"18/11/11","18:40",0.0,13.2,83.6,1014.2,284.8,1.3,2.0,320.8,0.00,10.5,17.2,"18:38:12",1
"18/11/11","18:50",0.0,12.9,84.2,1014.2,283.7,1.2,1.6,299.3,0.00,10.3,17.1,"18:40:42",1
"18/11/11","19:00",0.0,12.7,84.5,1014.7,288.7,1.3,1.7,298.9,0.00,10.2,16.8,"18:50:52",1
"18/11/11","19:10",0.0,12.6,85.4,1014.2,285.5,1.3,1.7,261.9,0.00,10.3,16.9,"19:05:42",1
"18/11/11","19:20",0.0,12.5,85.5,1014.5,293.6,1.3,1.9,302.9,0.00,10.2,16.6,"19:15:18",1
"18/11/11","19:30",0.0,12.5,85.3,1014.7,317.1,1.7,2.7,322.8,0.00,10.1,16.5,"19:24:18",1
"18/11/11","19:40",0.0,12.4,86.4,1014.5,303.6,1.3,2.6,320.4,0.00,10.2,16.5,"19:38:20",1
"18/11/11","19:50",0.0,12.3,86.0,1014.7,285.2,1.3,2.6,306.2,0.00,10.1,16.3,"19:41:50",1
"18/11/11","20:00",0.0,12.4,86.6,1014.5,302.8,1.8,3.9,322.5,0.00,10.3,16.4,"19:59:12",1
"18/11/11","20:10",0.0,12.6,84.9,1014.2,316.1,2.2,3.9,329.8,0.00,10.2,16.4,"20:02:20",1
"18/11/11","20:20",0.0,12.5,85.0,1014.5,314.1,2.2,3.4,331.6,0.00,10.1,16.2,"20:17:46",1
"18/11/11","20:30",0.0,12.4,85.3,1014.0,322.2,2.5,4.2,326.3,0.00,10.0,16.1,"20:23:08",1
"18/11/11","20:40",0.0,12.6,85.1,1014.0,318.8,2.7,4.0,313.3,0.00,10.2,16.0,"20:33:36",1
"18/11/11","20:50",0.0,12.2,84.2,1014.5,308.1,1.6,3.2,317.3,0.00,9.7,15.9,"20:41:24",1
"18/11/11","21:00",0.0,12.0,85.5,1014.2,314.2,1.8,3.7,327.4,0.00,9.7,15.7,"20:56:46",1
"18/11/11","21:10",0.0,11.6,86.4,1014.2,286.0,1.2,1.6,303.9,0.00,9.4,15.6,"21:05:54",1
"18/11/11","21:20",0.0,11.9,87.6,1014.2,304.7,2.2,4.3,334.6,0.00,9.9,15.8,"21:19:54",1
"18/11/11","21:30",0.0,12.4,86.3,1014.0,320.6,2.7,4.0,327.1,0.00,10.2,15.6,"21:29:54",1
"18/11/11","21:40",0.0,12.3,85.1,1013.8,319.9,2.8,4.0,310.6,0.00,9.9,15.7,"21:35:20",1
"18/11/11","21:50",0.0,12.0,84.9,1014.2,304.7,2.0,3.2,325.4,0.00,9.6,15.5,"21:42:22",1
"18/11/11","22:00",0.0,11.8,86.3,1014.2,322.7,2.1,3.2,337.0,0.00,9.6,15.5,"21:56:46",1
"18/11/11","22:10",0.0,12.0,86.4,1014.5,334.3,2.2,3.4,340.2,0.00,9.8,15.4,"22:05:02",1
"18/11/11","22:20",0.0,12.2,86.2,1014.5,339.2,1.7,3.4,336.1,0.00,10.0,15.3,"22:14:36",1
"18/11/11","22:30",0.0,12.4,85.9,1014.5,333.1,1.7,3.2,341.4,0.00,10.1,15.2,"22:21:16",1
"18/11/11","22:40",0.0,12.5,85.8,1014.5,329.1,2.0,2.9,319.1,0.00,10.2,15.4,"22:32:46",1
"18/11/11","22:50",0.0,12.8,84.6,1014.2,327.1,2.6,4.5,328.5,0.00,10.3,15.2,"22:45:24",1
"18/11/11","23:00",0.0,12.9,83.5,1014.5,326.8,2.8,7.0,342.9,0.00,10.2,15.4,"22:55:26",1
"18/11/11","23:10",0.0,13.0,82.5,1014.5,321.7,2.6,4.7,335.8,0.00,10.1,15.3,"23:01:04",1
"18/11/11","23:20",0.0,12.9,82.3,1014.0,323.3,2.7,4.2,333.7,0.00,10.0,15.2,"23:16:50",1
"18/11/11","23:30",0.0,12.8,82.7,1014.5,330.1,2.7,4.7,333.3,0.00,10.0,15.1,"23:26:44",1
"18/11/11","23:40",0.0,12.9,82.8,1014.5,325.9,3.0,5.0,342.3,0.00,10.1,15.3,"23:35:08",1
"18/11/11","23:50",0.0,12.8,82.9,1014.0,315.0,2.5,5.0,329.2,0.00,10.0,15.3,"23:46:40",1
"18/11/11","24:00",0.0,12.8,83.0,1014.0,333.2,2.8,5.0,315.8,0.00,10.0,15.2,"23:50:12",1
